Time,TemperatureF,DewpointF,PressureIn,WindDirection,WindDirectionDegrees,WindSpeedMPH,WindSpeedGustMPH,Humidity,HourlyPrecipIn,Conditions,Clouds,dailyrainin,SoftwareType,DateUTC
2013-04-01 00:00:00,57.0,35.9,29.81,SW,218,13.0,18.0,45,0.00,CLR,,0.00,WeatherDisplay:10.37,2013-04-01 07:00:00,
2013-04-01 00:10:00,57.0,35.3,29.81,SW,218,12.0,18.0,44,0.00,CLR,,0.00,WeatherDisplay:10.37,2013-04-01 07:10:00,
2013-04-01 00:15:00,56.9,35.8,29.80,SW,215,14.0,21.0,45,0.00,CLR,,0.00,WeatherDisplay:10.37,2013-04-01 07:15:00,
2013-04-01 00:20:00,57.2,35.4,29.80,SW,216,13.0,24.0,44,0.00,CLR,,0.00,WeatherDisplay:10.37,2013-04-01 07:20:00,
2013-04-01 00:25:00,57.0,35.3,29.80,SW,223,14.0,31.0,44,0.00,CLR,,0.00,WeatherDisplay:10.37,2013-04-01 07:25:00,
2013-04-01 00:30:00,57.0,34.7,29.81,SW,228,16.0,21.0,43,0.00,CLR,,0.00,WeatherDisplay:10.37,2013-04-01 07:30:00,
2013-04-01 00:35:00,57.0,34.1,29.81,SW,223,10.0,20.0,42,0.00,CLR,,0.00,WeatherDisplay:10.37,2013-04-01 07:35:00,
2013-04-01 00:40:00,56.9,34.6,29.81,SSW,211,13.0,24.0,43,0.00,CLR,,0.00,WeatherDisplay:10.37,2013-04-01 07:40:00,
2013-04-01 00:45:00,56.9,35.2,29.80,SSW,208,17.0,24.0,44,0.00,CLR,,0.00,WeatherDisplay:10.37,2013-04-01 07:45:00,
2013-04-01 00:50:00,56.7,35.0,29.80,SW,215,17.0,25.0,44,0.00,CLR,,0.00,WeatherDisplay:10.37,2013-04-01 07:50:00,
2013-04-01 01:00:00,57.0,33.5,29.79,SW,236,13.0,21.0,41,0.00,CLR,,0.00,WeatherDisplay:10.37,2013-04-01 08:00:00,
2013-04-01 01:05:00,57.4,30.6,29.79,WSW,238,17.0,24.0,36,0.00,CLR,,0.00,WeatherDisplay:10.37,2013-04-01 08:05:00,
2013-04-01 01:10:00,57.3,31.9,29.79,SW,221,18.0,23.0,38,0.00,CLR,,0.00,WeatherDisplay:10.37,2013-04-01 08:10:00,
2013-04-01 01:15:00,57.0,31.6,29.79,SW,224,22.0,27.0,38,0.00,CLR,,0.00,WeatherDisplay:10.37,2013-04-01 08:15:00,
2013-04-01 01:20:00,56.7,33.2,29.79,SW,223,21.0,29.0,41,0.00,CLR,,0.00,WeatherDisplay:10.37,2013-04-01 08:20:00,
2013-04-01 01:25:00,56.9,32.2,29.78,SW,222,23.0,30.0,39,0.00,CLR,,0.00,WeatherDisplay:10.37,2013-04-01 08:25:00,
2013-04-01 01:30:00,56.5,33.7,29.78,SW,221,22.0,30.0,42,0.00,CLR,,0.00,WeatherDisplay:10.37,2013-04-01 08:30:00,
2013-04-01 01:40:00,56.4,33.6,29.79,SW,221,20.0,26.0,42,0.00,CLR,,0.00,WeatherDisplay:10.37,2013-04-01 08:40:00,
2013-04-01 01:50:00,56.5,33.0,29.79,SW,218,17.0,23.0,41,0.00,CLR,,0.00,WeatherDisplay:10.37,2013-04-01 08:50:00,
2013-04-01 01:55:00,56.0,33.8,29.80,SSW,213,18.0,26.0,43,0.00,CLR,,0.00,WeatherDisplay:10.37,2013-04-01 08:55:00,
2013-04-01 02:00:00,56.0,33.8,29.79,SSW,212,24.0,30.0,43,0.00,CLR,,0.00,WeatherDisplay:10.37,2013-04-01 09:00:00,
2013-04-01 02:05:00,55.9,33.7,29.79,SSW,211,16.0,27.0,43,0.00,CLR,,0.00,WeatherDisplay:10.37,2013-04-01 09:05:00,
2013-04-01 02:10:00,56.0,33.8,29.79,SSW,206,15.0,27.0,43,0.00,CLR,,0.00,WeatherDisplay:10.37,2013-04-01 09:10:00,
2013-04-01 02:15:00,56.1,33.3,29.80,SSW,198,15.0,26.0,42,0.00,CLR,,0.00,WeatherDisplay:10.37,2013-04-01 09:15:00,
2013-04-01 02:20:00,55.9,33.1,29.80,SSW,209,17.0,23.0,42,0.00,CLR,,0.00,WeatherDisplay:10.37,2013-04-01 09:20:00,
2013-04-01 02:25:00,55.9,33.1,29.80,SSW,213,17.0,28.0,42,0.00,CLR,,0.00,WeatherDisplay:10.37,2013-04-01 09:25:00,
2013-04-01 02:30:00,56.0,33.2,29.80,SW,218,17.0,25.0,42,0.00,CLR,,0.00,WeatherDisplay:10.37,2013-04-01 09:30:00,
2013-04-01 02:40:00,55.4,33.3,29.80,SW,219,15.0,24.0,43,0.00,CLR,,0.00,WeatherDisplay:10.37,2013-04-01 09:40:00,
2013-04-01 02:45:00,55.6,32.8,29.80,SSW,209,14.0,22.0,42,0.00,CLR,,0.00,WeatherDisplay:10.37,2013-04-01 09:45:00,
2013-04-01 02:50:00,55.4,32.1,29.80,SSW,211,14.0,22.0,41,0.00,CLR,,0.00,WeatherDisplay:10.37,2013-04-01 09:50:00,
2013-04-01 03:00:00,54.8,33.3,29.80,SW,218,16.0,22.0,44,0.00,CLR,,0.00,WeatherDisplay:10.37,2013-04-01 10:00:00,
2013-04-01 03:05:00,54.8,33.3,29.80,SW,222,16.0,23.0,44,0.00,CLR,,0.00,WeatherDisplay:10.37,2013-04-01 10:05:00,
2013-04-01 03:15:00,54.7,32.0,29.80,SW,224,13.0,24.0,42,0.00,CLR,,0.00,WeatherDisplay:10.37,2013-04-01 10:15:00,
2013-04-01 03:20:00,55.2,30.7,29.80,SW,235,12.0,16.0,39,0.00,CLR,,0.00,WeatherDisplay:10.37,2013-04-01 10:20:00,
2013-04-01 03:30:00,54.5,33.0,29.80,SW,225,16.0,21.0,44,0.00,CLR,,0.00,WeatherDisplay:10.37,2013-04-01 10:30:00,
2013-04-01 03:40:00,54.2,31.6,29.81,SW,234,7.0,13.0,42,0.00,CLR,,0.00,WeatherDisplay:10.37,2013-04-01 10:40:00,
2013-04-01 03:45:00,54.5,31.9,29.81,SW,231,12.0,16.0,42,0.00,CLR,,0.00,WeatherDisplay:10.37,2013-04-01 10:45:00,
2013-04-01 03:50:00,54.7,32.0,29.81,SW,231,12.0,16.0,42,0.00,CLR,,0.00,WeatherDisplay:10.37,2013-04-01 10:50:00,
2013-04-01 04:00:00,54.9,29.7,29.81,SW,235,9.0,12.0,38,0.00,CLR,,0.00,WeatherDisplay:10.37,2013-04-01 11:00:00,
2013-04-01 04:10:00,54.7,32.1,29.81,SSW,211,6.0,12.0,42,0.00,CLR,,0.00,WeatherDisplay:10.37,2013-04-01 11:10:00,
2013-04-01 04:20:00,54.5,30.6,29.81,WSW,238,10.0,12.0,40,0.00,CLR,,0.00,WeatherDisplay:10.37,2013-04-01 11:20:00,
2013-04-01 04:25:00,54.7,30.8,29.81,SW,228,10.0,13.0,40,0.00,CLR,,0.00,WeatherDisplay:10.37,2013-04-01 11:25:00,
2013-04-01 04:30:00,54.8,29.6,29.81,SW,217,9.0,13.0,38,0.00,CLR,,0.00,WeatherDisplay:10.37,2013-04-01 11:30:00,
2013-04-01 04:35:00,54.8,29.7,29.81,SSW,207,10.0,14.0,38,0.00,CLR,,0.00,WeatherDisplay:10.37,2013-04-01 11:35:00,
2013-04-01 04:40:00,54.8,30.3,29.81,SW,215,10.0,20.0,39,0.00,CLR,,0.00,WeatherDisplay:10.37,2013-04-01 11:40:00,
2013-04-01 04:50:00,54.8,29.7,29.82,SSW,210,7.0,20.0,38,0.00,CLR,,0.00,WeatherDisplay:10.37,2013-04-01 11:50:00,
2013-04-01 04:55:00,54.4,29.9,29.82,SSW,206,5.0,9.0,39,0.00,CLR,,0.00,WeatherDisplay:10.37,2013-04-01 11:55:00,
2013-04-01 05:00:00,54.2,29.1,29.82,SW,226,9.0,13.0,38,0.00,CLR,,0.00,WeatherDisplay:10.37,2013-04-01 12:00:00,
2013-04-01 05:10:00,53.5,31.6,29.82,SW,227,10.0,16.0,43,0.00,CLR,,0.00,WeatherDisplay:10.37,2013-04-01 12:10:00,
2013-04-01 05:15:00,53.2,31.3,29.83,SSW,211,9.0,17.0,43,0.00,CLR,,0.00,WeatherDisplay:10.37,2013-04-01 12:15:00,
2013-04-01 05:20:00,52.8,30.9,29.83,SW,216,10.0,14.0,43,0.00,CLR,,0.00,WeatherDisplay:10.37,2013-04-01 12:20:00,
2013-04-01 05:25:00,52.4,31.1,29.83,SW,217,0.0,10.0,44,0.00,CLR,,0.00,WeatherDisplay:10.37,2013-04-01 12:25:00,
2013-04-01 05:30:00,52.0,30.7,29.84,SW,215,0.0,0.0,44,0.00,CLR,,0.00,WeatherDisplay:10.37,2013-04-01 12:30:00,
2013-04-01 05:40:00,51.9,30.6,29.84,SSW,209,9.0,12.0,44,0.00,CLR,,0.00,WeatherDisplay:10.37,2013-04-01 12:40:00,
2013-04-01 05:45:00,52.3,31.6,29.84,SSW,207,1.0,7.0,45,0.00,CLR,,0.00,WeatherDisplay:10.37,2013-04-01 12:45:00,
2013-04-01 05:50:00,52.2,31.5,29.84,SSW,206,0.0,2.0,45,0.00,CLR,,0.00,WeatherDisplay:10.37,2013-04-01 12:50:00,
2013-04-01 05:55:00,51.9,31.7,29.84,SSW,206,0.0,2.0,46,0.00,CLR,,0.00,WeatherDisplay:10.37,2013-04-01 12:55:00,
2013-04-01 06:00:00,51.4,31.8,29.84,SSW,206,1.0,3.0,47,0.00,CLR,,0.00,WeatherDisplay:10.37,2013-04-01 13:00:00,
2013-04-01 06:10:00,51.1,30.5,29.85,SW,228,6.0,12.0,45,0.00,CLR,,0.00,WeatherDisplay:10.37,2013-04-01 13:10:00,
2013-04-01 06:15:00,52.0,29.6,29.84,WSW,240,0.0,9.0,42,0.00,CLR,,0.00,WeatherDisplay:10.37,2013-04-01 13:15:00,
2013-04-01 06:20:00,51.8,30.5,29.84,WSW,239,2.0,4.0,44,0.00,CLR,,0.00,WeatherDisplay:10.37,2013-04-01 13:20:00,
2013-04-01 06:30:00,51.0,30.9,29.85,SE,138,3.0,5.0,46,0.00,CLR,,0.00,WeatherDisplay:10.37,2013-04-01 13:30:00,
2013-04-01 06:35:00,51.9,28.9,29.85,South,170,2.0,10.0,41,0.00,CLR,,0.00,WeatherDisplay:10.37,2013-04-01 13:35:00,
2013-04-01 06:40:00,52.3,29.3,29.85,South,183,0.0,3.0,41,0.00,CLR,,0.00,WeatherDisplay:10.37,2013-04-01 13:40:00,
2013-04-01 06:50:00,52.0,29.6,29.85,South,180,2.0,9.0,42,0.00,CLR,,0.00,WeatherDisplay:10.37,2013-04-01 13:50:00,
2013-04-01 06:55:00,51.9,29.5,29.85,South,182,2.0,7.0,42,0.00,CLR,,0.00,WeatherDisplay:10.37,2013-04-01 13:55:00,
2013-04-01 07:00:00,51.6,29.2,29.86,South,183,1.0,5.0,42,0.00,CLR,,0.00,WeatherDisplay:10.37,2013-04-01 14:00:00,
2013-04-01 07:10:00,52.3,29.9,29.86,SSW,210,9.0,12.0,42,0.00,CLR,,0.00,WeatherDisplay:10.37,2013-04-01 14:10:00,
2013-04-01 07:20:00,52.9,29.8,29.86,WSW,238,0.0,6.0,41,0.00,CLR,,0.00,WeatherDisplay:10.37,2013-04-01 14:20:00,
2013-04-01 07:30:00,53.7,29.3,29.87,SW,231,2.0,4.0,39,0.00,CLR,,0.00,WeatherDisplay:10.37,2013-04-01 14:30:00,
2013-04-01 07:40:00,54.1,29.7,29.88,SE,133,1.0,3.0,39,0.00,CLR,,0.00,WeatherDisplay:10.37,2013-04-01 14:40:00,
2013-04-01 07:45:00,54.4,29.9,29.88,SE,133,0.0,1.0,39,0.00,CLR,,0.00,WeatherDisplay:10.37,2013-04-01 14:45:00,
2013-04-01 07:50:00,54.8,29.0,29.87,SE,133,0.0,4.0,37,0.00,CLR,,0.00,WeatherDisplay:10.37,2013-04-01 14:50:00,
2013-04-01 07:55:00,55.3,28.8,29.87,SE,133,0.0,4.0,36,0.00,CLR,,0.00,WeatherDisplay:10.37,2013-04-01 14:55:00,
2013-04-01 08:05:00,55.9,27.9,29.87,SE,133,1.0,4.0,34,0.00,CLR,,0.00,WeatherDisplay:10.37,2013-04-01 15:05:00,
2013-04-01 08:10:00,56.2,27.5,29.87,SE,133,0.0,3.0,33,0.00,CLR,,0.00,WeatherDisplay:10.37,2013-04-01 15:10:00,
2013-04-01 08:15:00,56.6,27.8,29.87,SE,133,1.0,3.0,33,0.00,CLR,,0.00,WeatherDisplay:10.37,2013-04-01 15:15:00,
2013-04-01 08:20:00,56.7,27.9,29.87,SE,134,2.0,4.0,33,0.00,CLR,,0.00,WeatherDisplay:10.37,2013-04-01 15:20:00,
2013-04-01 08:25:00,56.9,27.3,29.88,SE,134,3.0,5.0,32,0.00,CLR,,0.00,WeatherDisplay:10.37,2013-04-01 15:25:00,
2013-04-01 08:30:00,57.0,27.4,29.88,SE,134,2.0,5.0,32,0.00,CLR,,0.00,WeatherDisplay:10.37,2013-04-01 15:30:00,
2013-04-01 08:40:00,57.8,27.3,29.88,SW,218,3.0,6.0,31,0.00,CLR,,0.00,WeatherDisplay:10.37,2013-04-01 15:40:00,
2013-04-01 08:45:00,58.0,26.7,29.88,West,262,3.0,5.0,30,0.00,CLR,,0.00,WeatherDisplay:10.37,2013-04-01 15:45:00,
2013-04-01 08:50:00,58.2,26.9,29.88,WSW,243,6.0,9.0,30,0.00,CLR,,0.00,WeatherDisplay:10.37,2013-04-01 15:50:00,
2013-04-01 08:55:00,58.9,25.8,29.87,SW,227,7.0,9.0,28,0.00,CLR,,0.00,WeatherDisplay:10.37,2013-04-01 15:55:00,
2013-04-01 09:00:00,59.4,26.3,29.87,SW,218,6.0,8.0,28,0.00,CLR,,0.00,WeatherDisplay:10.37,2013-04-01 16:00:00,
2013-04-01 09:10:00,59.6,26.4,29.88,SW,222,6.0,9.0,28,0.00,CLR,,0.00,WeatherDisplay:10.37,2013-04-01 16:10:00,
2013-04-01 09:15:00,59.8,26.6,29.88,SW,227,3.0,9.0,28,0.00,CLR,,0.00,WeatherDisplay:10.37,2013-04-01 16:15:00,
2013-04-01 09:20:00,60.1,26.9,29.88,SW,227,1.0,4.0,28,0.00,CLR,,0.00,WeatherDisplay:10.37,2013-04-01 16:20:00,
2013-04-01 09:25:00,60.8,25.7,29.88,West,278,6.0,10.0,26,0.00,CLR,,0.00,WeatherDisplay:10.37,2013-04-01 16:25:00,
2013-04-01 09:30:00,60.9,26.7,29.88,NW,305,2.0,8.0,27,0.00,CLR,,0.00,WeatherDisplay:10.37,2013-04-01 16:30:00,
2013-04-01 09:40:00,61.0,25.8,29.88,NW,304,6.0,8.0,26,0.00,CLR,,0.00,WeatherDisplay:10.37,2013-04-01 16:40:00,
2013-04-01 09:45:00,61.0,26.7,29.88,WNW,302,1.0,8.0,27,0.00,CLR,,0.00,WeatherDisplay:10.37,2013-04-01 16:45:00,
2013-04-01 09:55:00,61.3,27.0,29.89,WNW,298,5.0,7.0,27,0.00,CLR,,0.00,WeatherDisplay:10.37,2013-04-01 16:55:00,
2013-04-01 10:00:00,61.6,26.3,29.88,WNW,298,2.0,7.0,26,0.00,CLR,,0.00,WeatherDisplay:10.37,2013-04-01 17:00:00,
2013-04-01 10:05:00,61.6,26.3,29.88,WNW,293,5.0,7.0,26,0.00,CLR,,0.00,WeatherDisplay:10.37,2013-04-01 17:05:00,
2013-04-01 10:10:00,62.0,27.6,29.88,WNW,288,5.0,7.0,27,0.00,CLR,,0.00,WeatherDisplay:10.37,2013-04-01 17:10:00,
2013-04-01 10:15:00,62.6,27.2,29.88,WNW,288,3.0,5.0,26,0.00,CLR,,0.00,WeatherDisplay:10.37,2013-04-01 17:15:00,
2013-04-01 10:20:00,62.6,26.2,29.88,West,279,3.0,7.0,25,0.00,CLR,,0.00,WeatherDisplay:10.37,2013-04-01 17:20:00,
2013-04-01 10:30:00,63.8,25.3,29.88,West,269,3.0,5.0,23,0.00,CLR,,0.00,WeatherDisplay:10.37,2013-04-01 17:30:00,
2013-04-01 10:40:00,63.5,27.0,29.88,WSW,243,2.0,9.0,25,0.00,CLR,,0.00,WeatherDisplay:10.37,2013-04-01 17:40:00,
2013-04-01 10:45:00,63.8,26.3,29.88,SW,219,0.0,5.0,24,0.00,CLR,,0.00,WeatherDisplay:10.37,2013-04-01 17:45:00,
2013-04-01 10:50:00,64.5,24.7,29.88,SW,218,2.0,4.0,22,0.00,CLR,,0.00,WeatherDisplay:10.37,2013-04-01 17:50:00,
2013-04-01 10:55:00,64.8,25.0,29.88,SW,231,2.0,6.0,22,0.00,CLR,,0.00,WeatherDisplay:10.37,2013-04-01 17:55:00,
2013-04-01 11:00:00,65.4,25.6,29.88,WSW,238,0.0,5.0,22,0.00,CLR,,0.00,WeatherDisplay:10.37,2013-04-01 18:00:00,
2013-04-01 11:05:00,65.2,25.4,29.88,WSW,243,0.0,6.0,22,0.00,CLR,,0.00,WeatherDisplay:10.37,2013-04-01 18:05:00,
2013-04-01 11:10:00,65.5,24.5,29.88,WSW,243,1.0,6.0,21,0.00,CLR,,0.00,WeatherDisplay:10.37,2013-04-01 18:10:00,
2013-04-01 11:15:00,65.5,24.5,29.88,WSW,250,3.0,8.0,21,0.00,CLR,,0.00,WeatherDisplay:10.37,2013-04-01 18:15:00,
2013-04-01 11:20:00,64.8,22.7,29.88,West,259,1.0,9.0,20,0.00,CLR,,0.00,WeatherDisplay:10.37,2013-04-01 18:20:00,
2013-04-01 11:25:00,65.4,23.2,29.88,West,268,5.0,7.0,20,0.00,CLR,,0.00,WeatherDisplay:10.37,2013-04-01 18:25:00,
2013-04-01 11:30:00,65.8,23.6,29.88,West,269,1.0,7.0,20,0.00,CLR,,0.00,WeatherDisplay:10.37,2013-04-01 18:30:00,
2013-04-01 11:35:00,65.3,24.3,29.88,West,269,2.0,7.0,21,0.00,CLR,,0.00,WeatherDisplay:10.37,2013-04-01 18:35:00,
2013-04-01 11:40:00,65.4,24.4,29.88,West,269,3.0,7.0,21,0.00,CLR,,0.00,WeatherDisplay:10.37,2013-04-01 18:40:00,
2013-04-01 11:45:00,65.5,24.5,29.88,West,266,6.0,9.0,21,0.00,CLR,,0.00,WeatherDisplay:10.37,2013-04-01 18:45:00,
2013-04-01 11:50:00,65.5,24.5,29.88,West,265,3.0,8.0,21,0.00,CLR,,0.00,WeatherDisplay:10.37,2013-04-01 18:50:00,
2013-04-01 11:55:00,65.8,23.6,29.88,West,270,5.0,10.0,20,0.00,CLR,,0.00,WeatherDisplay:10.37,2013-04-01 18:55:00,
2013-04-01 12:00:00,66.0,23.7,29.88,West,275,3.0,10.0,20,0.00,CLR,,0.00,WeatherDisplay:10.37,2013-04-01 19:00:00,
2013-04-01 12:10:00,67.2,23.5,29.87,West,279,0.0,4.0,19,0.00,CLR,,0.00,WeatherDisplay:10.37,2013-04-01 19:10:00,
2013-04-01 12:15:00,68.0,24.2,29.86,West,280,3.0,6.0,19,0.00,CLR,,0.00,WeatherDisplay:10.37,2013-04-01 19:15:00,
2013-04-01 12:20:00,68.8,24.8,29.85,West,280,0.0,4.0,19,0.00,CLR,,0.00,WeatherDisplay:10.37,2013-04-01 19:20:00,
2013-04-01 12:25:00,68.3,23.2,29.85,West,280,3.0,6.0,18,0.00,CLR,,0.00,WeatherDisplay:10.37,2013-04-01 19:25:00,
2013-04-01 12:30:00,67.8,24.0,29.86,West,281,3.0,12.0,19,0.00,CLR,,0.00,WeatherDisplay:10.37,2013-04-01 19:30:00,
2013-04-01 12:35:00,66.9,23.3,29.86,WNW,287,2.0,9.0,19,0.00,CLR,,0.00,WeatherDisplay:10.37,2013-04-01 19:35:00,
2013-04-01 12:40:00,67.6,23.8,29.85,WNW,284,6.0,8.0,19,0.00,CLR,,0.00,WeatherDisplay:10.37,2013-04-01 19:40:00,
2013-04-01 12:50:00,67.9,24.1,29.85,West,267,3.0,6.0,19,0.00,CLR,,0.00,WeatherDisplay:10.37,2013-04-01 19:50:00,
2013-04-01 12:55:00,68.3,23.1,29.85,West,262,6.0,8.0,18,0.00,CLR,,0.00,WeatherDisplay:10.37,2013-04-01 19:55:00,
2013-04-01 13:00:00,68.1,23.0,29.85,WSW,255,5.0,9.0,18,0.00,CLR,,0.00,WeatherDisplay:10.37,2013-04-01 20:00:00,
2013-04-01 13:10:00,68.5,23.3,29.84,WSW,252,3.0,7.0,18,0.00,CLR,,0.00,WeatherDisplay:10.37,2013-04-01 20:10:00,
2013-04-01 13:20:00,68.6,23.4,29.84,WSW,244,0.0,5.0,18,0.00,CLR,,0.00,WeatherDisplay:10.37,2013-04-01 20:20:00,
2013-04-01 13:25:00,69.6,24.1,29.84,WSW,242,1.0,3.0,18,0.00,CLR,,0.00,WeatherDisplay:10.37,2013-04-01 20:25:00,
2013-04-01 13:30:00,71.0,23.9,29.83,WSW,242,0.0,2.0,17,0.00,CLR,,0.00,WeatherDisplay:10.37,2013-04-01 20:30:00,
2013-04-01 13:40:00,71.5,22.9,29.83,SW,233,5.0,11.0,16,0.00,CLR,,0.00,WeatherDisplay:10.37,2013-04-01 20:40:00,
2013-04-01 13:45:00,70.6,22.2,29.83,SW,215,2.0,12.0,16,0.00,CLR,,0.00,WeatherDisplay:10.37,2013-04-01 20:45:00,
2013-04-01 13:50:00,71.6,23.0,29.82,SW,217,7.0,12.0,16,0.00,CLR,,0.00,WeatherDisplay:10.37,2013-04-01 20:50:00,
2013-04-01 13:55:00,69.9,23.1,29.82,SW,233,6.0,13.0,17,0.00,CLR,,0.00,WeatherDisplay:10.37,2013-04-01 20:55:00,
2013-04-01 14:00:00,69.9,23.1,29.82,WSW,240,1.0,9.0,17,0.00,CLR,,0.00,WeatherDisplay:10.37,2013-04-01 21:00:00,
2013-04-01 14:05:00,70.4,23.5,29.82,WSW,245,2.0,12.0,17,0.00,CLR,,0.00,WeatherDisplay:10.37,2013-04-01 21:05:00,
2013-04-01 14:10:00,70.5,24.9,29.82,WSW,247,0.0,5.0,18,0.00,CLR,,0.00,WeatherDisplay:10.37,2013-04-01 21:10:00,
2013-04-01 14:15:00,71.1,24.0,29.82,WSW,247,1.0,4.0,17,0.00,CLR,,0.00,WeatherDisplay:10.37,2013-04-01 21:15:00,
2013-04-01 14:20:00,71.9,24.7,29.81,WSW,246,1.0,3.0,17,0.00,CLR,,0.00,WeatherDisplay:10.37,2013-04-01 21:20:00,
2013-04-01 14:25:00,72.8,25.4,29.80,WSW,246,0.0,3.0,17,0.00,CLR,,0.00,WeatherDisplay:10.37,2013-04-01 21:25:00,
2013-04-01 14:30:00,72.9,24.1,29.80,SW,236,5.0,10.0,16,0.00,CLR,,0.00,WeatherDisplay:10.37,2013-04-01 21:30:00,
2013-04-01 14:40:00,71.6,23.0,29.80,SW,227,8.0,13.0,16,0.00,CLR,,0.00,WeatherDisplay:10.37,2013-04-01 21:40:00,
2013-04-01 14:45:00,71.3,24.2,29.80,SSW,211,2.0,10.0,17,0.00,CLR,,0.00,WeatherDisplay:10.37,2013-04-01 21:45:00,
2013-04-01 14:50:00,71.5,22.9,29.80,SSW,196,2.0,7.0,16,0.00,CLR,,0.00,WeatherDisplay:10.37,2013-04-01 21:50:00,
2013-04-01 15:00:00,72.5,23.7,29.79,South,189,1.0,1.0,16,0.00,CLR,,0.00,WeatherDisplay:10.37,2013-04-01 22:00:00,
2013-04-01 15:05:00,73.1,24.2,29.78,South,188,0.0,3.0,16,0.00,CLR,,0.00,WeatherDisplay:10.37,2013-04-01 22:05:00,
2013-04-01 15:10:00,73.9,26.3,29.78,South,183,1.0,7.0,17,0.00,CLR,,0.00,WeatherDisplay:10.37,2013-04-01 22:10:00,
2013-04-01 15:15:00,73.3,25.8,29.78,South,180,2.0,7.0,17,0.00,CLR,,0.00,WeatherDisplay:10.37,2013-04-01 22:15:00,
2013-04-01 15:20:00,72.3,25.0,29.78,South,191,6.0,9.0,17,0.00,CLR,,0.00,WeatherDisplay:10.37,2013-04-01 22:20:00,
2013-04-01 15:30:00,71.8,26.0,29.78,West,276,9.0,12.0,18,0.00,CLR,,0.00,WeatherDisplay:10.37,2013-04-01 22:30:00,
2013-04-01 15:40:00,71.5,28.3,29.77,SW,233,2.0,14.0,20,0.00,CLR,,0.00,WeatherDisplay:10.37,2013-04-01 22:40:00,
2013-04-01 15:45:00,72.5,27.9,29.76,SSW,212,3.0,10.0,19,0.00,CLR,,0.00,WeatherDisplay:10.37,2013-04-01 22:45:00,
2013-04-01 15:50:00,72.2,27.6,29.77,WSW,239,10.0,14.0,19,0.00,CLR,,0.00,WeatherDisplay:10.37,2013-04-01 22:50:00,
2013-04-01 15:55:00,71.9,27.3,29.77,SW,229,13.0,17.0,19,0.00,CLR,,0.00,WeatherDisplay:10.37,2013-04-01 22:55:00,
2013-04-01 16:00:00,71.6,27.1,29.77,SW,224,12.0,14.0,19,0.00,CLR,,0.00,WeatherDisplay:10.37,2013-04-01 23:00:00,
2013-04-01 16:05:00,71.6,28.4,29.77,SW,214,7.0,12.0,20,0.00,CLR,,0.00,WeatherDisplay:10.37,2013-04-01 23:05:00,
2013-04-01 16:10:00,71.3,28.1,29.76,SW,219,5.0,10.0,20,0.00,CLR,,0.00,WeatherDisplay:10.37,2013-04-01 23:10:00,
2013-04-01 16:15:00,71.2,26.8,29.77,West,264,2.0,10.0,19,0.00,CLR,,0.00,WeatherDisplay:10.37,2013-04-01 23:15:00,
2013-04-01 16:20:00,71.2,28.0,29.77,West,266,5.0,10.0,20,0.00,CLR,,0.00,WeatherDisplay:10.37,2013-04-01 23:20:00,
2013-04-01 16:30:00,72.0,28.7,29.77,WSW,242,7.0,12.0,20,0.00,CLR,,0.00,WeatherDisplay:10.37,2013-04-01 23:30:00,
2013-04-01 16:40:00,70.4,29.7,29.77,SW,231,9.0,14.0,22,0.00,CLR,,0.00,WeatherDisplay:10.37,2013-04-01 23:40:00,
2013-04-01 16:45:00,70.8,28.9,29.77,SW,230,10.0,15.0,21,0.00,CLR,,0.00,WeatherDisplay:10.37,2013-04-01 23:45:00,
2013-04-01 16:50:00,70.8,28.9,29.77,WSW,243,10.0,16.0,21,0.00,CLR,,0.00,WeatherDisplay:10.37,2013-04-01 23:50:00,
2013-04-01 16:55:00,70.5,29.8,29.77,West,261,10.0,14.0,22,0.00,CLR,,0.00,WeatherDisplay:10.37,2013-04-01 23:55:00,
2013-04-01 17:00:00,70.1,29.5,29.77,West,260,8.0,16.0,22,0.00,CLR,,0.00,WeatherDisplay:10.37,2013-04-02 00:00:00,
2013-04-01 17:10:00,69.8,29.2,29.77,SW,231,8.0,12.0,22,0.00,CLR,,0.00,WeatherDisplay:10.37,2013-04-02 00:10:00,
2013-04-01 17:15:00,69.9,28.2,29.77,SW,218,12.0,18.0,21,0.00,CLR,,0.00,WeatherDisplay:10.37,2013-04-02 00:15:00,
2013-04-01 17:20:00,70.5,28.7,29.77,SW,216,10.0,15.0,21,0.00,CLR,,0.00,WeatherDisplay:10.37,2013-04-02 00:20:00,
2013-04-01 17:30:00,69.7,29.1,29.78,WSW,240,12.0,15.0,22,0.00,CLR,,0.00,WeatherDisplay:10.37,2013-04-02 00:30:00,
2013-04-01 17:40:00,69.7,29.1,29.77,West,269,6.0,12.0,22,0.00,CLR,,0.00,WeatherDisplay:10.37,2013-04-02 00:40:00,
2013-04-01 17:45:00,69.4,28.9,29.77,West,275,6.0,13.0,22,0.00,CLR,,0.00,WeatherDisplay:10.37,2013-04-02 00:45:00,
2013-04-01 17:50:00,69.3,28.8,29.77,West,268,10.0,17.0,22,0.00,CLR,,0.00,WeatherDisplay:10.37,2013-04-02 00:50:00,
2013-04-01 17:55:00,69.4,27.7,29.77,WSW,257,5.0,12.0,21,0.00,CLR,,0.00,WeatherDisplay:10.37,2013-04-02 00:55:00,
2013-04-01 18:00:00,69.3,28.8,29.77,WSW,256,12.0,16.0,22,0.00,CLR,,0.00,WeatherDisplay:10.37,2013-04-02 01:00:00,
2013-04-01 18:10:00,68.9,28.5,29.77,West,273,6.0,13.0,22,0.00,CLR,,0.00,WeatherDisplay:10.37,2013-04-02 01:10:00,
2013-04-01 18:15:00,68.8,29.5,29.77,West,272,6.0,12.0,23,0.00,CLR,,0.00,WeatherDisplay:10.37,2013-04-02 01:15:00,
2013-04-01 18:20:00,68.8,29.5,29.77,West,281,6.0,10.0,23,0.00,CLR,,0.00,WeatherDisplay:10.37,2013-04-02 01:20:00,
2013-04-01 18:30:00,68.5,28.1,29.77,WNW,289,2.0,9.0,22,0.00,CLR,,0.00,WeatherDisplay:10.37,2013-04-02 01:30:00,
2013-04-01 18:40:00,68.3,28.0,29.77,West,281,6.0,9.0,22,0.00,CLR,,0.00,WeatherDisplay:10.37,2013-04-02 01:40:00,
2013-04-01 18:50:00,67.6,28.5,29.78,WNW,283,5.0,7.0,23,0.00,CLR,,0.00,WeatherDisplay:10.37,2013-04-02 01:50:00,
2013-04-01 18:55:00,67.1,28.1,29.78,WNW,285,6.0,9.0,23,0.00,CLR,,0.00,WeatherDisplay:10.37,2013-04-02 01:55:00,
2013-04-01 19:00:00,66.6,27.6,29.78,WNW,290,1.0,6.0,23,0.00,CLR,,0.00,WeatherDisplay:10.37,2013-04-02 02:00:00,
2013-04-01 19:05:00,66.0,28.1,29.78,WNW,291,2.0,6.0,24,0.00,CLR,,0.00,WeatherDisplay:10.37,2013-04-02 02:05:00,
2013-04-01 19:10:00,65.5,27.7,29.78,WNW,291,6.0,10.0,24,0.00,CLR,,0.00,WeatherDisplay:10.37,2013-04-02 02:10:00,
2013-04-01 19:20:00,64.4,28.8,29.78,WNW,290,6.0,10.0,26,0.00,CLR,,0.00,WeatherDisplay:10.37,2013-04-02 02:20:00,
2013-04-01 19:25:00,64.0,28.4,29.78,WNW,286,3.0,12.0,26,0.00,CLR,,0.00,WeatherDisplay:10.37,2013-04-02 02:25:00,
2013-04-01 19:30:00,63.9,28.3,29.78,WNW,293,6.0,12.0,26,0.00,CLR,,0.00,WeatherDisplay:10.37,2013-04-02 02:30:00,
2013-04-01 19:40:00,63.4,28.8,29.78,WNW,300,6.0,9.0,27,0.00,CLR,,0.00,WeatherDisplay:10.37,2013-04-02 02:40:00,
2013-04-01 19:45:00,63.4,28.8,29.78,WNW,298,6.0,9.0,27,0.00,CLR,,0.00,WeatherDisplay:10.37,2013-04-02 02:45:00,
2013-04-01 19:50:00,63.2,28.6,29.78,WNW,292,6.0,12.0,27,0.00,CLR,,0.00,WeatherDisplay:10.37,2013-04-02 02:50:00,
2013-04-01 19:55:00,63.0,28.4,29.79,WNW,287,5.0,12.0,27,0.00,CLR,,0.00,WeatherDisplay:10.37,2013-04-02 02:55:00,
2013-04-01 20:00:00,62.7,28.2,29.79,West,280,3.0,9.0,27,0.00,CLR,,0.00,WeatherDisplay:10.37,2013-04-02 03:00:00,
2013-04-01 20:05:00,62.4,28.8,29.80,West,273,5.0,7.0,28,0.00,CLR,,0.00,WeatherDisplay:10.37,2013-04-02 03:05:00,
2013-04-01 20:10:00,62.4,28.8,29.80,West,270,6.0,10.0,28,0.00,CLR,,0.00,WeatherDisplay:10.37,2013-04-02 03:10:00,
2013-04-01 20:20:00,62.0,28.5,29.80,West,261,6.0,10.0,28,0.00,CLR,,0.00,WeatherDisplay:10.37,2013-04-02 03:20:00,
2013-04-01 20:25:00,61.6,27.3,29.79,WSW,256,5.0,8.0,27,0.00,CLR,,0.00,WeatherDisplay:10.37,2013-04-02 03:25:00,
2013-04-01 20:30:00,61.6,28.1,29.79,WSW,250,3.0,9.0,28,0.00,CLR,,0.00,WeatherDisplay:10.37,2013-04-02 03:30:00,
2013-04-01 20:40:00,61.5,27.1,29.79,SW,227,6.0,9.0,27,0.00,CLR,,0.00,WeatherDisplay:10.37,2013-04-02 03:40:00,
2013-04-01 20:45:00,61.3,27.9,29.79,SW,220,6.0,10.0,28,0.00,CLR,,0.00,WeatherDisplay:10.37,2013-04-02 03:45:00,
2013-04-01 20:50:00,61.2,27.8,29.79,SW,218,3.0,10.0,28,0.00,CLR,,0.00,WeatherDisplay:10.37,2013-04-02 03:50:00,
2013-04-01 20:55:00,60.9,27.5,29.79,SSW,211,2.0,7.0,28,0.00,CLR,,0.00,WeatherDisplay:10.37,2013-04-02 03:55:00,
2013-04-01 21:00:00,60.9,28.4,29.79,SW,214,6.0,9.0,29,0.00,CLR,,0.00,WeatherDisplay:10.37,2013-04-02 04:00:00,
2013-04-01 21:05:00,61.3,28.7,29.79,SW,221,5.0,7.0,29,0.00,CLR,,0.00,WeatherDisplay:10.37,2013-04-02 04:05:00,
2013-04-01 21:10:00,61.3,28.7,29.80,SW,226,0.0,4.0,29,0.00,CLR,,0.00,WeatherDisplay:10.37,2013-04-02 04:10:00,
2013-04-01 21:15:00,61.2,28.7,29.80,SW,227,0.0,0.0,29,0.00,CLR,,0.00,WeatherDisplay:10.37,2013-04-02 04:15:00,
2013-04-01 21:20:00,60.9,28.4,29.81,SW,227,0.0,0.0,29,0.00,CLR,,0.00,WeatherDisplay:10.37,2013-04-02 04:20:00,
2013-04-01 21:25:00,60.1,29.3,29.81,SW,227,0.0,0.0,31,0.00,CLR,,0.00,WeatherDisplay:10.37,2013-04-02 04:25:00,
2013-04-01 21:30:00,59.4,28.8,29.81,SW,227,0.0,0.0,31,0.00,CLR,,0.00,WeatherDisplay:10.37,2013-04-02 04:30:00,
2013-04-01 21:40:00,58.6,29.6,29.81,SW,227,0.0,0.0,33,0.00,CLR,,0.00,WeatherDisplay:10.37,2013-04-02 04:40:00,
2013-04-01 21:45:00,58.3,29.3,29.81,SW,227,0.0,0.0,33,0.00,CLR,,0.00,WeatherDisplay:10.37,2013-04-02 04:45:00,
2013-04-01 21:50:00,58.3,29.3,29.81,SW,227,0.0,0.0,33,0.00,CLR,,0.00,WeatherDisplay:10.37,2013-04-02 04:50:00,
2013-04-01 21:55:00,58.3,29.3,29.81,SW,227,0.0,0.0,33,0.00,CLR,,0.00,WeatherDisplay:10.37,2013-04-02 04:55:00,
2013-04-01 22:00:00,58.1,29.1,29.81,SW,227,0.0,0.0,33,0.00,CLR,,0.00,WeatherDisplay:10.37,2013-04-02 05:00:00,
2013-04-01 22:05:00,58.0,29.8,29.81,SW,227,0.0,0.0,34,0.00,CLR,,0.00,WeatherDisplay:10.37,2013-04-02 05:05:00,
2013-04-01 22:10:00,57.8,29.6,29.81,SW,227,0.0,3.0,34,0.00,CLR,,0.00,WeatherDisplay:10.37,2013-04-02 05:10:00,
2013-04-01 22:15:00,57.8,30.3,29.81,SW,227,2.0,5.0,35,0.00,CLR,,0.00,WeatherDisplay:10.37,2013-04-02 05:15:00,
2013-04-01 22:20:00,58.3,29.3,29.81,SW,227,2.0,4.0,33,0.00,CLR,,0.00,WeatherDisplay:10.37,2013-04-02 05:20:00,
2013-04-01 22:25:00,58.4,29.4,29.81,SW,227,2.0,4.0,33,0.00,CLR,,0.00,WeatherDisplay:10.37,2013-04-02 05:25:00,
2013-04-01 22:30:00,58.3,29.3,29.81,SW,227,1.0,3.0,33,0.00,CLR,,0.00,WeatherDisplay:10.37,2013-04-02 05:30:00,
2013-04-01 22:35:00,57.8,28.9,29.81,SW,227,0.0,4.0,33,0.00,CLR,,0.00,WeatherDisplay:10.37,2013-04-02 05:35:00,
2013-04-01 22:40:00,57.3,29.1,29.82,SW,227,0.0,2.0,34,0.00,CLR,,0.00,WeatherDisplay:10.37,2013-04-02 05:40:00,
2013-04-01 22:45:00,56.7,29.3,29.82,SW,227,2.0,3.0,35,0.00,CLR,,0.00,WeatherDisplay:10.37,2013-04-02 05:45:00,
2013-04-01 22:50:00,56.4,29.7,29.82,SW,227,1.0,3.0,36,0.00,CLR,,0.00,WeatherDisplay:10.37,2013-04-02 05:50:00,
2013-04-01 22:55:00,56.0,30.1,29.82,SW,227,1.0,2.0,37,0.00,CLR,,0.00,WeatherDisplay:10.37,2013-04-02 05:55:00,
2013-04-01 23:00:00,55.7,30.4,29.82,SW,227,1.0,3.0,38,0.00,CLR,,0.00,WeatherDisplay:10.37,2013-04-02 06:00:00,
2013-04-01 23:05:00,55.4,30.2,29.83,SW,227,1.0,5.0,38,0.00,CLR,,0.00,WeatherDisplay:10.37,2013-04-02 06:05:00,
2013-04-01 23:10:00,55.6,29.7,29.83,SW,227,1.0,3.0,37,0.00,CLR,,0.00,WeatherDisplay:10.37,2013-04-02 06:10:00,
2013-04-01 23:15:00,55.6,29.7,29.83,SW,227,0.0,2.0,37,0.00,CLR,,0.00,WeatherDisplay:10.37,2013-04-02 06:15:00,
2013-04-01 23:20:00,55.5,30.3,29.83,SW,227,0.0,1.0,38,0.00,CLR,,0.00,WeatherDisplay:10.37,2013-04-02 06:20:00,
2013-04-01 23:25:00,55.4,30.2,29.82,SW,227,0.0,2.0,38,0.00,CLR,,0.00,WeatherDisplay:10.37,2013-04-02 06:25:00,
2013-04-01 23:30:00,55.3,30.1,29.82,SW,227,0.0,0.0,38,0.00,CLR,,0.00,WeatherDisplay:10.37,2013-04-02 06:30:00,
2013-04-01 23:40:00,55.4,30.2,29.82,SW,227,0.0,0.0,38,0.00,CLR,,0.00,WeatherDisplay:10.37,2013-04-02 06:40:00,
2013-04-01 23:45:00,55.3,29.4,29.82,SW,227,0.0,0.0,37,0.00,CLR,,0.00,WeatherDisplay:10.37,2013-04-02 06:45:00,
2013-04-01 23:50:00,55.0,29.8,29.82,SW,227,0.0,0.0,38,0.00,CLR,,0.00,WeatherDisplay:10.37,2013-04-02 06:50:00,
2013-04-01 23:55:00,54.7,29.6,29.82,SW,227,0.0,0.0,38,0.00,CLR,,0.00,WeatherDisplay:10.37,2013-04-02 06:55:00,